When you browse on this site, cookies collect data to enhance your experience and personalize the content and advertising you see.
Visit our Privacy Policy to learn more. By continuing to use the site, you agree to this use of cookies and data.
EN

Hourly Weather Miskolc

Today, 14 July, Tuesday

Time Temperature Precipitation Wind Pressure Humidity
00:00 +12°C° 0 mm 2 mps 751 mmHg 80%
01:00 +12°C° 0 mm 2 mps 752 mmHg 80%
02:00 +12°C° 0 mm 2 mps 751 mmHg 81%
03:00 +10°C° 0 mm 2 mps 751 mmHg 82%
04:00 +10°C° 0 mm 2 mps 751 mmHg 83%
05:00 +13°C° 0 mm 2 mps 751 mmHg 79%
06:00 +15°C° 0 mm 2 mps 750 mmHg 75%
07:00 +17°C° 0 mm 2 mps 751 mmHg 70%
08:00 +18°C° 0 mm 2 mps 750 mmHg 65%
09:00 +19°C° 0 mm 2 mps 750 mmHg 60%
10:00 +21°C° 0 mm 2 mps 750 mmHg 55%
11:00 +21°C° 0 mm 2 mps 750 mmHg 53%
12:00 +23°C° 0 mm 2 mps 749 mmHg 51%
13:00 +24°C° 0 mm 2 mps 749 mmHg 49%
14:00 +24°C° 0 mm 2 mps 749 mmHg 50%
15:00 +24°C° 0 mm 1 mps 748 mmHg 50%
16:00 +24°C° 0 mm 1 mps 748 mmHg 51%
17:00 +22°C° 0 mm 1 mps 748 mmHg 58%
18:00 +21°C° 0 mm 1 mps 748 mmHg 65%
19:00 +17°C° 0 mm 0 mps 748 mmHg 71%
20:00 +16°C° 0 mm 0 mps 748 mmHg 73%
21:00 +15°C° 0 mm 0 mps 748 mmHg 75%
22:00 +15°C° 0 mm 1 mps 748 mmHg 76%
23:00 +15°C° 0 mm 1 mps 748 mmHg 78%

Tomorrow, 15 July, Wednesday

Time Temperature Precipitation Wind Pressure Humidity
00:00 +15°C° 0 mm 1 mps 748 mmHg 79%
01:00 +14°C° 0 mm 1 mps 748 mmHg 80%
02:00 +14°C° 0 mm 1 mps 748 mmHg 81%
03:00 +14°C° 0 mm 1 mps 748 mmHg 82%
04:00 +13°C° 0 mm 1 mps 747 mmHg 84%
05:00 +15°C° 0 mm 1 mps 747 mmHg 80%
06:00 +16°C° 0 mm 1 mps 748 mmHg 76%
07:00 +19°C° 0 mm 1 mps 748 mmHg 72%
08:00 +21°C° 0 mm 1 mps 748 mmHg 67%
09:00 +22°C° 0 mm 1 mps 748 mmHg 63%
10:00 +23°C° 0 mm 1 mps 748 mmHg 59%
11:00 +24°C° 0 mm 1 mps 748 mmHg 56%
12:00 +24°C° 0 mm 1 mps 747 mmHg 53%
13:00 +25°C° 0 mm 1 mps 747 mmHg 51%
14:00 +25°C° 0 mm 1 mps 747 mmHg 51%
15:00 +25°C° 0 mm 1 mps 747 mmHg 51%
16:00 +25°C° 0 mm 1 mps 747 mmHg 51%
17:00 +23°C° 0 mm 1 mps 747 mmHg 56%
18:00 +20°C° 0 mm 0 mps 747 mmHg 62%
19:00 +18°C° 0 mm 0 mps 746 mmHg 67%
20:00 +18°C° 0 mm 0 mps 747 mmHg 68%
21:00 +17°C° 0 mm 0 mps 747 mmHg 69%
22:00 +16°C° 0 mm 0 mps 747 mmHg 70%
23:00 +15°C° 0 mm 0 mps 747 mmHg 72%

Day after tomorrow, 16 July, Thursday

Time Temperature Precipitation Wind Pressure Humidity
00:00 +15°C° 0 mm 0 mps 746 mmHg 73%
01:00 +15°C° 0 mm 0 mps 746 mmHg 75%
02:00 +14°C° 0 mm 0 mps 746 mmHg 76%
03:00 +14°C° 0 mm 0 mps 746 mmHg 77%
04:00 +14°C° 0 mm 0 mps 746 mmHg 78%
05:00 +15°C° 0 mm 0 mps 746 mmHg 75%
06:00 +17°C° 0 mm 0 mps 746 mmHg 71%
07:00 +19°C° 0 mm 0 mps 747 mmHg 67%
08:00 +22°C° 0 mm 1 mps 746 mmHg 63%
09:00 +23°C° 0 mm 1 mps 746 mmHg 59%
10:00 +25°C° 0 mm 2 mps 746 mmHg 55%
11:00 +25°C° 0.1 mm 2 mps 746 mmHg 56%
12:00 +26°C° 0.1 mm 3 mps 746 mmHg 57%
13:00 +26°C° 0.1 mm 3 mps 746 mmHg 58%
14:00 +26°C° 0.2 mm 3 mps 746 mmHg 59%
15:00 +26°C° 0.2 mm 3 mps 746 mmHg 61%
16:00 +25°C° 0.2 mm 3 mps 745 mmHg 62%
17:00 +24°C° 0.2 mm 3 mps 745 mmHg 68%
18:00 +23°C° 0.2 mm 2 mps 745 mmHg 73%
19:00 +20°C° 0.2 mm 2 mps 745 mmHg 79%
20:00 +19°C° 0.1 mm 2 mps 745 mmHg 80%
21:00 +20°C° 0.1 mm 1 mps 746 mmHg 81%
22:00 +19°C° 0.1 mm 1 mps 746 mmHg 82%
23:00 +19°C° 0.1 mm 1 mps 746 mmHg 84%

17 July, Friday

Time Temperature Precipitation Wind Pressure Humidity
00:00 +18°C° 0.1 mm 1 mps 746 mmHg 86%
01:00 +18°C° 0.1 mm 1 mps 746 mmHg 88%
02:00 +16°C° 0 mm 1 mps 745 mmHg 88%
03:00 +16°C° 0 mm 1 mps 745 mmHg 89%
04:00 +16°C° 0 mm 1 mps 745 mmHg 89%
05:00 +17°C° 0 mm 2 mps 745 mmHg 86%
06:00 +18°C° 0 mm 2 mps 746 mmHg 82%
07:00 +18°C° 0 mm 2 mps 746 mmHg 78%
08:00 +19°C° 0.1 mm 2 mps 746 mmHg 78%
09:00 +19°C° 0.1 mm 3 mps 746 mmHg 78%
10:00 +19°C° 0.1 mm 3 mps 746 mmHg 78%
11:00 +18°C° 0.1 mm 3 mps 746 mmHg 79%
12:00 +18°C° 0.1 mm 3 mps 746 mmHg 80%
13:00 +18°C° 0.1 mm 2 mps 746 mmHg 81%
14:00 +18°C° 0.1 mm 2 mps 746 mmHg 82%
15:00 +19°C° 0.1 mm 1 mps 746 mmHg 82%
16:00 +18°C° 0.1 mm 1 mps 746 mmHg 83%
17:00 +18°C° 0 mm 1 mps 746 mmHg 84%
18:00 +18°C° 0 mm 1 mps 746 mmHg 85%
19:00 +15°C° 0 mm 0 mps 746 mmHg 86%
20:00 +14°C° 0 mm 0 mps 746 mmHg 88%
21:00 +14°C° 0 mm 0 mps 746 mmHg 89%
22:00 +13°C° 0 mm 0 mps 747 mmHg 90%
23:00 +13°C° 0 mm 0 mps 747 mmHg 90%

18 July, Saturday

Time Temperature Precipitation Wind Pressure Humidity
00:00 +12°C° 0 mm 0 mps 747 mmHg 91%
01:00 +13°C° 0 mm 1 mps 747 mmHg 91%
02:00 +13°C° 0 mm 1 mps 747 mmHg 91%
03:00 +13°C° 0 mm 1 mps 747 mmHg 91%
04:00 +13°C° 0 mm 1 mps 747 mmHg 92%
05:00 +14°C° 0 mm 1 mps 747 mmHg 87%
06:00 +16°C° 0 mm 1 mps 747 mmHg 83%
07:00 +18°C° 0 mm 1 mps 747 mmHg 79%
08:00 +20°C° 0.1 mm 1 mps 747 mmHg 74%
09:00 +21°C° 0.1 mm 1 mps 747 mmHg 69%
10:00 +22°C° 0.1 mm 1 mps 747 mmHg 64%
11:00 +23°C° 0.2 mm 1 mps 746 mmHg 63%
12:00 +24°C° 0.2 mm 1 mps 746 mmHg 61%
13:00 +24°C° 0.2 mm 1 mps 746 mmHg 59%
14:00 +24°C° 0.1 mm 1 mps 746 mmHg 59%
15:00 +22°C° 0.1 mm 0 mps 746 mmHg 58%
16:00 +22°C° 0.1 mm 0 mps 746 mmHg 58%
17:00 +21°C° 0.1 mm 0 mps 746 mmHg 64%
18:00 +20°C° 0.1 mm 0 mps 746 mmHg 71%
19:00 +18°C° 0.1 mm 0 mps 746 mmHg 77%
20:00 +17°C° 0 mm 0 mps 746 mmHg 80%
21:00 +17°C° 0 mm 0 mps 746 mmHg 82%
22:00 +16°C° 0 mm 0 mps 746 mmHg 84%
23:00 +15°C° 0 mm 0 mps 746 mmHg 85%

19 July, Sunday

Time Temperature Precipitation Wind Pressure Humidity
00:00 +16°C° 0 mm 1 mps 746 mmHg 87%
01:00 +16°C° 0 mm 1 mps 746 mmHg 88%
02:00 +16°C° 0 mm 1 mps 746 mmHg 90%
03:00 +15°C° 0 mm 1 mps 746 mmHg 91%
04:00 +15°C° 0 mm 1 mps 746 mmHg 92%
05:00 +16°C° 0 mm 1 mps 746 mmHg 89%
06:00 +19°C° 0 mm 1 mps 746 mmHg 85%
07:00 +20°C° 0 mm 1 mps 746 mmHg 81%
08:00 +21°C° 0.2 mm 1 mps 746 mmHg 75%
09:00 +23°C° 0.2 mm 1 mps 746 mmHg 69%
10:00 +24°C° 0.2 mm 1 mps 746 mmHg 63%
11:00 +25°C° 0.3 mm 1 mps 746 mmHg 59%
12:00 +26°C° 0.3 mm 1 mps 746 mmHg 56%
13:00 +27°C° 0.3 mm 1 mps 746 mmHg 52%
14:00 +27°C° 0.2 mm 2 mps 746 mmHg 54%
15:00 +26°C° 0.2 mm 2 mps 746 mmHg 56%
16:00 +26°C° 0.2 mm 2 mps 746 mmHg 57%
17:00 +25°C° 0.1 mm 2 mps 746 mmHg 64%
18:00 +23°C° 0.1 mm 2 mps 746 mmHg 70%
19:00 +22°C° 0.1 mm 1 mps 746 mmHg 77%
20:00 +21°C° 0 mm 1 mps 746 mmHg 80%
21:00 +20°C° 0 mm 1 mps 746 mmHg 83%
22:00 +19°C° 0 mm 1 mps 747 mmHg 86%
23:00 +18°C° 0 mm 1 mps 746 mmHg 87%
Show more